Tracking 25710 objects as of 5-Jul-2022
HD Live streaming from Space Station
objects crossing your sky now

FENGYUN 1C DEB

Track FENGYUN 1C DEB now!
10-day predictions


NORAD ID: 36196
Int'l Code: 1999-025DTV
Perigee: 813.4 km
Apogee: 873.1 km
Inclination: 99.0 °
Period: 101.6 minutes
Semi major axis: 7214 km
RCS: 0.0113 m2 (small)
Launch date: May 10, 1999
Source: People's Republic of China (PRC)
Launch site: Taiyaun Space Center, China (TSC)

Note: This is SATELLITE DEBRIS
aabbcc
Your satellite tracking list
Your tracking list is empty




NASA's NSSDC Master Catalog

Two Line Element Set (TLE):
1 36196U 99025DTV 22176.11466295  .00002354  00000-0  11880-2 0  9996
2 36196  99.0333 292.8767 0041415 223.9617 135.8260 14.16819895466610
Source of the keplerian elements: AFSPC